GW4728 Weather Reports


time (UTC)temp
C
wind
direction
speed
KPH
gust
KPH
rain 1hr
cm
rain 24hr
cm
rain mn
cm
humidity
%
barometer
mb
20260504000513 18 212 6.4 11.3 0.00 0.00 0.00 38 1004.7
20260504000012 19 195 4.8 16.1 0.00 0.00 0.00 37 1004.7
20260503235506 19 237 4.8 16.1 0.00 0.00 0.00 38 1004.6
20260503235007 19 250 6.4 14.5 0.00 0.00 0.00 37 1004.6
20260503234510 19 185 6.4 17.7 0.00 0.00 0.00 33 1004.6
20260503234006 19 210 8.0 17.7 0.00 0.00 0.00 37 1004.6
20260503233509 19 203 9.7 16.1 0.00 0.00 0.00 36 1004.5
20260503233023 19 198 8.0 16.1 0.00 0.00 0.00 37 1004.6
20260503232506 19 192 8.0 16.1 0.00 0.00 0.00 35 1004.7
20260503232007 19 244 9.7 16.1 0.00 0.00 0.00 36 1004.8
20260503231524 19 191 8.0 17.7 0.00 0.00 0.00 36 1004.9
20260503231013 19 238 9.7 19.3 0.00 0.00 0.00 36 1005.0
20260503230508 19 238 11.3 19.3 0.00 0.00 0.00 37 1005.0
20260503230022 19 186 8.0 20.9 0.00 0.00 0.00 36 1004.9
20260503225509 19 260 11.3 20.9 0.00 0.00 0.00 34 1005.0
20260503225003 19 198 8.0 20.9 0.00 0.00 0.00 37 1005.1
20260503224517 19 245 11.3 20.9 0.00 0.00 0.00 36 1005.3
20260503224008 19 201 9.7 17.7 0.00 0.00 0.00 36 1005.2
20260503223508 18 195 11.3 19.3 0.00 0.00 0.00 36 1005.1
20260503223016 18 211 9.7 22.5 0.00 0.00 0.00 37 1005.1
20260503222507 18 225 11.3 22.5 0.00 0.00 0.00 37 1005.1
20260503222010 18 201 9.7 22.5 0.00 0.00 0.00 39 1005.1
20260503221510 18 211 11.3 22.5 0.00 0.00 0.00 37 1005.1
20260503221009 18 204 9.7 22.5 0.00 0.00 0.00 37 1005.2
20260503220510 18 192 11.3 24.1 0.00 0.00 0.00 36 1005.2
20260503220031 18 206 11.3 24.1 0.00 0.00 0.00 38 1005.3
20260503215507 18 224 12.9 24.1 0.00 0.00 0.00 37 1005.4
20260503215010 18 210 8.0 24.1 0.00 0.00 0.00 37 1005.2
20260503214536 18 237 14.5 24.1 0.00 0.00 0.00 39 1005.3
20260503214006 18 194 11.3 25.7 0.00 0.00 0.00 37 1005.4
20260503213511 18 207 9.7 25.7 0.00 0.00 0.00 36 1005.4
20260503213031 18 200 9.7 22.5 0.00 0.00 0.00 37 1005.4
20260503212507 18 231 11.3 22.5 0.00 0.00 0.00 39 1005.5
20260503212013 18 197 11.3 22.5 0.00 0.00 0.00 37 1005.6
20260503211520 18 274 11.3 20.9 0.00 0.00 0.00 41 1005.7
20260503211013 18 254 14.5 20.9 0.00 0.00 0.00 38 1005.7
20260503210510 18 181 9.7 24.1 0.00 0.00 0.00 39 1005.7
20260503210019 18 184 11.3 24.1 0.00 0.00 0.00 39 1005.8
20260503205514 18 214 12.9 24.1 0.00 0.00 0.00 39 1005.9
20260503205013 17 174 8.0 25.7 0.00 0.00 0.00 39 1005.8
20260503204524 17 196 14.5 25.7 0.00 0.00 0.00 38 1006.0
20260503204010 17 205 16.1 27.4 0.00 0.00 0.00 37 1006.1
20260503203511 17 199 12.9 29.0 0.00 0.00 0.00 41 1006.1
20260503203028 17 210 14.5 29.0 0.00 0.00 0.00 39 1006.3
20260503202511 17 231 17.7 29.0 0.00 0.00 0.00 39 1006.3
20260503202009 17 207 11.3 22.5 0.00 0.00 0.00 41 1006.3
20260503201526 17 200 11.3 22.5 0.00 0.00 0.00 43 1006.5
20260503201009 16 186 9.7 27.4 0.00 0.00 0.00 44 1006.6
20260503200510 16 209 14.5 27.4 0.00 0.00 0.00 43 1006.7
20260503200023 16 196 19.3 27.4 0.00 0.00 0.00 42 1006.7
20260503195511 16 240 12.9 25.7 0.00 0.00 0.00 45 1006.8
20260503195009 16 200 16.1 25.7 0.00 0.00 0.00 42 1007.0
20260503194524 16 215 12.9 25.7 0.00 0.00 0.00 44 1007.0
20260503194009 16 220 14.5 24.1 0.00 0.00 0.00 45 1007.0
20260503193506 16 231 11.3 27.4 0.00 0.00 0.00 45 1007.2
20260503193022 16 232 12.9 27.4 0.00 0.00 0.00 44 1007.3
20260503192508 16 204 17.7 29.0 0.00 0.00 0.00 42 1007.2
20260503192013 16 207 12.9 30.6 0.00 0.00 0.00 40 1007.3
20260503191520 16 205 17.7 30.6 0.00 0.00 0.00 40 1007.3
20260503191009 16 187 14.5 30.6 0.00 0.00 0.00 43 1007.3
20260503190507 16 181 17.7 30.6 0.00 0.00 0.00 39 1007.2
20260503190038 16 246 17.7 32.2 0.00 0.00 0.00 41 1007.3
20260503185509 16 204 17.7 32.2 0.00 0.00 0.00 38 1007.3
20260503185008 17 201 16.1 32.2 0.00 0.00 0.00 39 1007.3
20260503184527 16 221 16.1 32.2 0.00 0.00 0.00 37 1007.4
20260503184006 16 205 17.7 30.6 0.00 0.00 0.00 36 1007.4
20260503183503 16 190 16.1 25.7 0.00 0.00 0.00 42 1007.3
20260503183011 16 207 12.9 22.5 0.00 0.00 0.00 42 1007.4
20260503182502 16 169 12.9 27.4 0.00 0.00 0.00 43 1007.6
20260503182002 16 210 11.3 27.4 0.00 0.00 0.00 44 1007.7
20260503181520 16 227 14.5 25.7 0.00 0.00 0.00 44 1007.8
20260503181004 16 217 12.9 25.7 0.00 0.00 0.00 43 1008.0
20260503180503 16 236 16.1 25.7 0.00 0.00 0.00 43 1008.1
20260503180013 15 218 14.5 27.4 0.00 0.00 0.00 44 1008.1
20260503175511 15 210 12.9 33.8 0.00 0.00 0.00 45 1008.2
20260503175002 15 204 11.3 33.8 0.00 0.00 0.00 47 1008.3
20260503174504 15 220 20.9 30.6 0.00 0.00 0.00 44 1008.4
20260503174005 15 172 12.9 20.9 0.00 0.00 0.00 47 1008.4
20260503173505 15 258 11.3 27.4 0.00 0.00 0.00 48 1008.6
20260503173004 14 206 17.7 27.4 0.00 0.00 0.00 48 1008.7
20260503172505 14 211 12.9 29.0 0.00 0.00 0.00 48 1008.9
20260503172006 14 215 14.5 29.0 0.00 0.00 0.00 49 1008.9
20260503171521 14 194 12.9 24.1 0.00 0.00 0.00 51 1009.2
20260503171003 14 202 11.3 24.1 0.00 0.00 0.00 51 1009.2
20260503170504 13 221 12.9 24.1 0.00 0.00 0.00 50 1009.3
20260503151005 11 224 14.5 25.7 0.00 0.00 0.00 60 1010.9
20260503150505 12 186 16.1 27.4 0.00 0.00 0.00 57 1010.9
20260503131007 10 219 11.3 19.3 0.00 0.00 0.00 54 1011.6
20260503130507 10 216 12.9 19.3 0.00 0.00 0.00 53 1011.6
20260503110509 8 214 8.0 14.5 0.00 0.00 0.00 52 1011.6
20260503090507 7 206 8.0 12.9 0.00 0.00 0.00 55 1012.4
20260503081515 7 209 4.8 8.0 0.00 0.00 0.00 56 1012.8
20260503081011 7 201 4.8 11.3 0.00 0.00 0.00 55 1012.8
20260503080508 7 206 6.4 11.3 0.00 0.00 0.00 54 1012.8
20260503072507 8 203 3.2 9.7 0.00 0.00 0.00 53 1013.1
20260503072009 8 207 3.2 9.7 0.00 0.00 0.00 53 1013.1
20260503071528 8 186 3.2 8.0 0.00 0.00 0.00 53 1013.1
20260503071009 8 210 3.2 8.0 0.00 0.00 0.00 54 1013.1
20260503070507 8 204 3.2 11.3 0.00 0.00 0.00 54 1013.1
20260503055006 8 207 4.8 9.7 0.00 0.00 0.00 52 1013.8
20260503054512 8 209 4.8 9.7 0.00 0.00 0.00 52 1013.8
20260503054006 8 208 4.8 12.9 0.00 0.00 0.00 51 1013.8
20260503053508 8 211 6.4 12.9 0.00 0.00 0.00 52 1013.9
20260503053013 8 205 6.4 9.7 0.00 0.00 0.00 50 1013.9
20260503052503 8 205 4.8 9.7 0.00 0.00 0.00 51 1013.9
20260503052010 8 205 6.4 9.7 0.00 0.00 0.00 49 1013.9
20260503051523 8 204 6.4 11.3 0.00 0.00 0.00 49 1014.0
20260503051003 8 202 6.4 11.3 0.00 0.00 0.00 50 1014.1
20260503050503 8 201 4.8 9.7 0.00 0.00 0.00 50 1014.0
20260503050018 8 208 4.8 9.7 0.00 0.00 0.00 50 1014.0
20260503045504 8 205 4.8 11.3 0.00 0.00 0.00 49 1014.0
20260503045006 8 207 4.8 11.3 0.00 0.00 0.00 49 1014.0
20260503044512 8 203 4.8 11.3 0.00 0.00 0.00 50 1014.0
20260503044006 8 201 6.4 9.7 0.00 0.00 0.00 50 1014.0
20260503043501 8 202 4.8 11.3 0.00 0.00 0.00 49 1014.1
20260503043010 8 205 6.4 11.3 0.00 0.00 0.00 50 1014.1
20260503042506 8 208 6.4 11.3 0.00 0.00 0.00 51 1014.1
20260503042010 8 204 6.4 14.5 0.00 0.00 0.00 50 1014.2
20260503041508 8 207 6.4 14.5 0.00 0.00 0.00 50 1014.2
20260503041005 8 209 6.4 11.3 0.00 0.00 0.00 49 1014.3
20260503040519 8 205 6.4 12.9 0.00 0.00 0.00 50 1014.3
20260503040013 8 213 6.4 12.9 0.00 0.00 0.00 51 1014.3
20260503035506 9 211 6.4 9.7 0.00 0.00 0.00 50 1014.4
20260503035007 9 205 4.8 9.7 0.00 0.00 0.00 50 1014.4
20260503034524 9 210 4.8 9.7 0.00 0.00 0.00 49 1014.4
20260503034003 9 205 4.8 9.7 0.00 0.00 0.00 49 1014.5
20260503033503 9 205 4.8 9.7 0.00 0.00 0.00 51 1014.5
20260503033022 9 198 4.8 8.0 0.00 0.00 0.00 49 1014.5
20260503032503 9 205 4.8 8.0 0.00 0.00 0.00 49 1014.5
20260503032007 9 208 3.2 6.4 0.00 0.00 0.00 49 1014.6
20260503031516 9 212 3.2 6.4 0.00 0.00 0.00 48 1014.7
20260503031010 9 198 3.2 6.4 0.00 0.00 0.00 48 1014.7
20260503030503 9 201 3.2 6.4 0.00 0.00 0.00 48 1014.7
20260503030014 9 203 3.2 8.0 0.00 0.00 0.00 48 1014.8
20260503025508 9 204 3.2 8.0 0.00 0.00 0.00 47 1014.9
20260503025002 9 193 3.2 8.0 0.00 0.00 0.00 47 1014.9
20260503024511 9 191 3.2 6.4 0.00 0.00 0.00 47 1014.8
20260503024008 10 192 3.2 6.4 0.00 0.00 0.00 46 1014.8
20260503023509 10 189 3.2 6.4 0.00 0.00 0.00 46 1014.9
20260503023008 10 188 1.6 4.8 0.00 0.00 0.00 45 1014.8
20260503022506 10 179 1.6 6.4 0.00 0.00 0.00 46 1014.8
20260503022007 10 167 3.2 6.4 0.00 0.00 0.00 45 1014.8
20260503021524 10 176 3.2 4.8 0.00 0.00 0.00 44 1014.8
20260503021005 10 175 3.2 4.8 0.00 0.00 0.00 43 1014.8
20260503020507 10 180 3.2 4.8 0.00 0.00 0.00 42 1014.7
20260503020020 10 197 0.0 3.2 0.00 0.00 0.00 42 1014.7
20260503015502 11 232 0.0 4.8 0.00 0.00 0.00 42 1014.7
20260503015009 11 232 1.6 6.4 0.00 0.00 0.00 44 1014.6
20260503014522 11 234 3.2 6.4 0.00 0.00 0.00 41 1014.6
20260503014008 11 214 3.2 6.4 0.00 0.00 0.00 40 1014.5
20260503013508 11 210 3.2 4.8 0.00 0.00 0.00 41 1014.5
20260503013016 11 198 1.6 4.8 0.00 0.00 0.00 41 1014.5
20260503012509 11 198 3.2 4.8 0.00 0.00 0.00 40 1014.5
20260503012004 11 198 3.2 6.4 0.00 0.00 0.00 39 1014.5
20260503011526 11 214 3.2 6.4 0.00 0.00 0.00 37 1014.5
20260503011006 11 209 1.6 6.4 0.00 0.00 0.00 36 1014.5
20260503010509 11 214 3.2 8.0 0.00 0.00 0.00 36 1014.5
20260503010011 12 211 3.2 8.0 0.00 0.00 0.00 35 1014.5
20260503005506 12 214 4.8 8.0 0.00 0.00 0.00 35 1014.5
20260503005014 12 220 3.2 8.0 0.00 0.00 0.00 37 1014.6
20260503004525 12 206 3.2 8.0 0.00 0.00 0.00 37 1014.5
20260503004006 12 210 3.2 8.0 0.00 0.00 0.00 34 1014.5
20260503003509 12 250 4.8 11.3 0.00 0.00 0.00 34 1014.5
20260503003024 12 207 4.8 12.9 0.00 0.00 0.00 35 1014.5
20260503002505 12 204 6.4 12.9 0.00 0.00 0.00 33 1014.6
20260503002007 12 202 4.8 9.7 0.00 0.00 0.00 32 1014.6
20260503001524 12 211 3.2 9.7 0.00 0.00 0.00 34 1014.7
20260503001011 12 204 4.8 9.7 0.00 0.00 0.00 35 1014.7